Startseite
Über Mich
AHP4
Galerie
Sehschlangen
Tourenbuch
Bookmarks
Elektronik
Bewertung
Geschichten
[Tagesmessung] [Jahreswerte] [Information]

Messwerte vom 24.11.2021

Die letzten Messwerte von 23:58:50 Uhr:
KategorieMesswert
Temperatur [°C]5
Luftdruck [mBar]999
Sonneneinstrahlung0
Wind [km/h]0 aus Südost
Niederschlag [l/m²]0
rel.Luftfeucht.94%
CO2 [ppm]662

Diagramme
Messwerte vom 24.11.2021
Tagesaggregation
KategorieMinimumMaximumSchnittSumme
Temperatur [°C]585.9563
Luftdruck [mBar]99810141005.9188
Sonneneinstrahlung19954.2292
Wind [km/h]10
rF [%]93.696.696.22
Niederschlag [l/m²]0.515
CO2 [ppm]404803677.5
Einordnung alsKalter Tag

Messungen an benachbarten Tagen: Zur Jahresaggregation 2021
Tabelle aller Messwerte
UhrzeitTemperatur [°C]Luftdruck [mBar]SonneWind [km/h]RichtungRegen [l/m²]rF [%]CO2 [ppm]
00:01:47 6 1010 0 3 W 0 96.6 589
00:04:48 6 1010 0 2 SO 0 96.6 598
00:07:45 6 1010 0 1 O 0 96.6 603
00:10:47 6 1010 0 2 S 0 96.6 608
00:13:46 6 1010 0 0 SW 0 96.6 600
00:16:47 6 1010 0 2 SW 0 96.6 594
00:19:49 6 1010 0 2 W 0 96.6 595
00:22:48 6 1010 0 1 W 0 96.6 597
00:25:47 6 1010 0 0 SW 0 96.6 595
00:28:48 6 1010 0 1 SW 0 96.6 600
00:31:49 6 1010 0 1 SW 0 96.6 598
00:34:48 6 1010 0 0 SW 0.2575 96.6 601
00:37:46 6 1010 0 0 S 0 96.6 592
00:40:47 6 1010 0 0 W 0 96.6 586
00:43:49 6 1010 0 0 W 0 96.6 586
00:46:46 6 1010 0 1 W 0 96.6 592
00:49:47 6 1010 0 0 W 0 96.6 598
00:52:45 6 1010 0 2 W 0 96.6 594
00:55:48 6 1010 0 0 SW 0 96.6 597
00:58:48 6 1010 0 0 SW 0 96.6 594
01:01:47 6 1010 0 0 SO 0 96.6 592
01:04:46 6 1010 0 0 W 0 96.6 583
01:07:46 6 1010 0 2 W 0 96.6 587
01:10:46 6 1010 0 1 N 0 96.6 587
01:13:46 6 1010 0 0 W 0 96.6 593
01:16:49 6 1010 0 0 NW 0 96.6 592
01:19:47 6 1010 0 1 S 0 96.6 604
01:22:45 6 1010 0 2 W 0 96.6 601
01:25:46 6 1010 0 0 O 0 96.6 607
01:28:46 6 1010 0 0 SW 0 96.6 600
01:31:47 6 1010 0 0 SW 0 96.6 603
01:34:45 6 1010 0 1 S 0 96.6 594
01:37:45 6 1010 0 4 W 0 96.6 597
01:40:45 6 1010 0 0 W 0 96.6 603
01:43:46 6 1010 0 1 SW 0 96.6 609
01:46:46 6 1014 0 1 NW 0 96.6 600
01:49:49 6 1010 0 0 W 0 96.6 595
01:52:46 6 1010 0 2 W 0 96.6 600
01:55:46 6 1010 0 3 W 0 96.6 605
01:58:46 6 1010 0 0 W 0 96.6 600
02:01:49 6 1010 0 2 SW 0 96.6 589
02:04:45 6 1011 0 3 SW 0.2575 96.6 591
02:07:47 6 1010 0 1 W 0 96.6 597
02:10:44 6 1010 0 1 S 0 96.6 594
02:13:49 6 1010 0 1 SW 0 96.6 598
02:16:46 6 1010 0 0 S 0 96.6 603
02:19:50 6 1010 0 0 SW 0 96.6 603
02:22:45 6 1010 0 1 S 0 96.6 601
02:25:48 6 1010 0 0 W 0 96.6 601
02:28:47 6 1010 0 3 W 0 96.6 603
02:31:46 6 1010 0 1 W 0 96.6 607
02:34:49 6 1010 0 3 W 0 96.6 610
02:37:47 6 1010 0 2 S 0 96.6 605
02:40:48 6 1010 0 1 W 0 96.6 606
02:43:48 6 1010 0 2 NW 0 96.6 607
02:46:46 6 1010 0 0 SO 0 96.6 610
02:49:45 6 1010 0 0 S 0 96.6 609
02:52:49 6 1010 0 0 NW 0 96.6 604
02:55:47 6 1010 0 2 SW 0 96.6 607
02:58:50 6 1009 0 0 W 0 96.6 606
03:01:49 6 1010 0 1 SW 0 96.6 609
03:04:45 6 1009 0 0 SW 0 96.6 610
03:07:47 6 1010 0 0 SW 0 96.6 609
03:10:46 6 1010 0 0 W 0 96.6 607
03:13:46 6 1009 0 1 NW 0 96.6 607
03:16:46 6 1009 0 0 S 0 96.6 606
03:19:48 6 1010 0 0 SW 0 96.6 615
03:22:46 6 1010 0 5 W 0 96.6 616
03:25:45 6 1010 0 3 S 0 96.6 618
03:28:47 6 1010 0 3 W 0 96.6 619
03:31:47 6 1010 0 1 W 0 96.6 623
03:34:46 6 1009 0 1 W 0 96.6 621
03:37:50 6 1009 0 0 NW 0 96.6 618
03:40:47 6 1010 0 1 NW 0 96.6 616
03:43:46 6 1010 0 0 NW 0 96.6 612
03:46:47 6 1010 0 3 NW 0 96.6 608
03:49:45 6 1010 0 0 S 0 96.6 617
03:52:46 6 1009 0 0 O 0 96.6 621
03:55:46 6 1009 0 0 N 0 96.6 620
03:58:44 6 1010 0 0 W 0 96.6 623
04:01:47 6 1010 0 2 SW 0 96.6 620
04:04:46 6 1009 0 0 S 0 96.6 620
04:07:45 6 1010 0 0 W 0 96.6 619
04:10:46 6 1010 0 2 W 0 96.6 620
04:13:45 6 1010 0 1 W 0 96.6 606
04:16:47 6 1010 0 1 NW 0 96.6 606
04:19:47 6 1009 0 1 W 0 96.6 620
04:22:45 6 1010 0 0 SW 0 96.6 618
04:25:50 6 1010 0 1 SW 0 96.6 618
04:28:48 6 1009 0 1 NW 0 96.6 615
04:31:46 6 1010 0 0 W 0 96.6 618
04:34:48 6 1010 0 2 SW 0 96.6 618
04:37:47 6 1009 0 3 SW 0 96.6 624
04:40:47 6 1009 0 1 W 0 96.6 624
04:43:47 6 1009 0 0 SW 0 96.6 615
04:46:47 6 1009 0 0 NW 0 96.6 618
04:49:48 6 1009 0 0 S 0 96.6 624
04:52:49 6 1009 0 0 SO 0 96.6 623
04:55:48 6 1009 0 0 W 0 96.6 632
04:58:48 6 1009 0 1 NW 0 96.6 623
05:01:47 6 1009 0 1 W 0 96.6 630
05:04:46 6 1009 0 0 W 0 96.6 624
05:07:47 6 1009 0 1 W 0 96.6 630
05:10:47 6 1009 0 0 S 0 96.6 624
05:13:49 6 1009 0 1 SW 0 96.6 621
05:16:47 6 1009 0 1 0 96.6 615
05:19:47 6 1009 0 1 SW 0 96.6 615
05:22:48 6 1009 0 0 SW 0 96.6 623
05:25:47 6 1009 0 1 S 0 96.6 625
05:28:49 6 1009 0 1 SO 0 96.6 627
05:31:49 6 1009 0 4 SO 0 96.6 629
05:34:48 6 1009 0 1 S 0 96.6 630
05:37:45 6 1009 0 1 O 0 96.6 632
05:40:48 6 1009 0 0 SW 0 96.6 637
05:43:48 6 1009 0 3 NW 0 96.6 635
05:46:47 6 1009 0 1 W 0 96.6 629
05:49:49 6 1010 0 3 NW 0 96.6 630
05:52:48 6 1009 0 3 SW 0 96.6 627
05:55:49 6 1009 0 0 W 0 96.6 636
05:58:46 6 1009 0 0 W 0 96.6 631
06:01:46 6 1009 0 0 S 0 96.6 627
06:04:47 6 1009 0 0 SW 0 96.6 628
06:07:48 6 1010 0 0 SW 0 96.6 625
06:10:48 6 1010 0 2 W 0 96.6 627
06:13:48 6 1009 0 1 SW 0 96.6 623
06:16:48 6 1009 0 2 SW 0 96.6 623
06:19:50 6 1009 0 1 SW 0 96.6 620
06:22:47 6 1010 0 0 SO 0 96.6 627
06:25:47 6 1009 0 1 W 0 96.6 630
06:28:50 6 1009 0 0 SO 0 96.6 638
06:31:48 6 1009 0 0 S 0 96.6 640
06:34:46 6 1009 0 1 S 0 96.6 639
06:37:48 6 1009 0 3 SW 0 96.6 635
06:40:46 6 1009 0 0 S 0 96.6 642
06:43:46 6 1009 0 0 S 0 96.6 643
06:46:47 6 1009 0 0 SW 0 96.6 647
06:49:44 6 1009 0 3 S 0 96.6 645
06:52:49 6 1009 0 0 S 0 96.6 645
06:55:49 6 1009 0 0 SO 0 96.6 653
06:58:47 6 1009 0 1 S 0 96.6 659
07:01:48 6 1009 0 0 O 0 96.6 658
07:04:47 6 1009 0 0 S 0 96.6 651
07:07:46 6 1009 0 0 SO 0 96.6 644
07:10:48 6 1009 0 0 S 0 96.6 645
07:13:48 6 1009 0 0 S 0 96.6 658
07:16:47 6 1009 0 0 S 0 96.6 674
07:19:45 6 1009 0 4 S 0 96.6 676
07:22:48 6 1008 0 0 SO 0 96.6 687
07:25:49 6 1009 0 0 N 0 96.6 695
07:28:46 6 1008 4 0 S 0 96.6 700
07:31:47 6 1009 7 0 S 0 96.6 702
07:34:49 6 1009 8 0 W 0 96.6 705
07:37:49 6 1009 12 0 S 0 96.6 703
07:40:47 6 1009 19 1 O 0 96.6 700
07:43:48 6 1008 25 0 S 0 96.6 699
07:46:48 6 1009 26 0 NW 0 96.6 705
07:49:48 6 1008 30 0 SW 0 96.6 708
07:52:48 6 1009 42 0 S 0 96.6 718
07:55:47 6 1009 43 0 S 0 96.6 728
07:58:46 6 1010 45 0 S 0 96.6 720
08:01:47 6 1009 61 0 S 0 96.6 728
08:04:48 6 1009 70 0 SO 0 96.6 731
08:07:47 6 1009 79 1 S 0 96.6 726
08:10:49 6 1008 84 0 SO 0 96.6 733
08:13:47 6 1009 84 0 S 0 96.6 736
08:16:48 6 1009 93 1 S 0 96.6 729
08:19:47 6 1009 107 2 S 0 96.6 733
08:22:48 6 1008 113 1 SO 0 96.6 732
08:25:49 6 1009 112 0 S 0 96.6 726
08:28:49 6 1009 111 1 SW 0 96.6 732
08:31:47 6 1009 112 1 N 0 96.6 734
08:34:48 6 1009 121 1 SO 0 96.6 741
08:37:48 6 1009 124 1 W 0 96.6 747
08:40:49 6 1009 121 0 S 0 96.6 751
08:43:48 6 1009 118 2 W 0 96.6 733
08:46:46 6 1009 136 1 W 0 96.6 738
08:49:46 6 1009 140 0 W 0 96.6 744
08:52:48 6 1009 141 2 NW 0 96.6 748
08:55:47 6 1009 144 0 NW 0 96.6 740
08:58:49 6 1008 147 0 NW 0 96.6 741
09:01:49 6 1008 151 0 SO 0 96.6 743
09:04:48 6 1008 157 0 SO 0 96.6 746
09:07:48 6 1009 164 0 SO 0 96.6 749
09:10:48 6 1009 170 0 S 0 96.6 750
09:13:48 6 1009 171 1 SO 0 96.6 746
09:16:46 6 1008 173 0 S 0 96.6 738
09:19:48 6 1009 171 0 S 0 96.6 738
09:22:48 6 1009 168 0 S 0 96.6 735
09:25:47 6 1008 169 0 S 0 96.6 739
09:28:49 6 1009 172 0 SO 0 96.6 738
09:31:49 6 1009 177 3 SO 0 96.6 743
09:34:49 6 1009 180 4 NW 0 96.6 744
09:37:49 6 1008 180 1 S 0 96.6 739
09:40:46 6 1008 181 0 S 0 96.6 746
09:43:49 6 1008 182 0 SW 0 96.6 747
09:46:47 6 1008 183 3 S 0 96.6 759
09:49:49 6 1008 185 0 SW 0 96.6 764
09:52:48 6 1008 187 2 NW 0 96.6 770
09:55:47 6 1008 183 1 SW 0 96.6 764
09:58:47 7 1008 180 0 O 0 96.6 761
10:01:48 7 1008 184 2 SO 0 96.6 764
10:04:48 7 1008 188 0 S 0 96.6 764
10:07:48 7 1008 192 1 S 0 96.6 762
10:10:48 7 1008 194 0 SO 0 96.6 761
10:13:49 7 1009 192 0 SO 0 96.6 764
10:16:48 7 1008 191 1 SW 0 96.6 767
10:19:49 7 1008 186 0 SO 0 96.6 773
10:22:47 7 1008 191 0 S 0 96.6 772
10:25:48 7 1008 192 1 SW 0 96.6 769
10:28:47 7 1008 192 0 S 0 96.6 774
10:31:48 7 1008 189 2 SO 0 96.6 776
10:34:48 7 1008 190 0 W 0 96.6 772
10:37:49 7 1008 191 0 S 0 96.6 775
10:40:48 7 1008 191 1 SW 0 96.6 773
10:43:48 7 1008 190 0 S 0 96.6 770
10:46:47 7 1008 192 1 SW 0 96.6 769
10:49:48 7 1008 193 1 NO 0 96.6 776
10:52:48 7 1008 189 0 SO 0 96.6 782
10:55:48 7 1008 189 2 SW 0 96.6 779
10:58:46 7 1007 190 0 W 0 96.6 785
11:01:47 7 1007 191 1 W 0 96.6 782
11:04:47 7 1007 192 1 S 0 96.6 776
11:07:46 7 1008 190 0 N 0 96.6 766
11:10:49 7 1007 190 0 S 0 96.6 770
11:13:45 7 1007 190 1 S 0 96.6 778
11:16:46 7 1007 191 1 W 0 96.6 777
11:19:48 7 1008 193 3 S 0 96.6 785
11:22:49 7 1007 193 2 SW 0 96.6 792
11:25:47 7 1006 193 0 O 0 96.6 793
11:28:48 7 1006 193 0 SO 0 96.6 785
11:31:48 7 1007 193 0 S 0 96.6 785
11:34:46 7 1006 194 1 O 0 96.6 788
11:37:49 7 1007 194 0 SW 0 96.6 794
11:40:47 7 1007 195 0 S 0 96.6 793
11:43:47 7 1007 196 3 W 0 96.6 799
11:46:46 7 1007 198 0 NW 0 96.6 803
11:49:48 7 1007 199 0 S 0 96.6 802
11:52:47 7 1006 198 1 NW 0 96.6 800
11:55:47 7 1006 198 2 W 0 96.6 796
11:58:49 7 1006 199 1 SW 0 96.6 796
12:01:51 7 1007 199 0 SW 0 96.6 802
12:04:45 7 1006 197 0 W 0 96.6 797
12:07:45 7 1006 197 0 O 0 96.6 790
12:10:46 7 1006 198 0 O 0 96.6 790
12:13:49 8 1006 198 0 SW 0 96.6 792
12:16:48 8 1006 138 10 SW 0 96.6 788
12:19:50 8 1006 192 0 SW 0 96.6 404
12:22:47 8 1006 192 0 SO 0 96.6 404
12:25:46 8 1006 194 0 W 0 96.6 478
12:28:48 8 1006 193 0 SO 0 96.6 586
12:31:47 8 1006 192 1 SO 0 96.6 599
12:34:47 8 1006 191 1 SW 0 96.6 580
12:37:48 8 1006 189 0 S 0 96.6 568
12:40:48 8 1006 188 0 S 0 96.6 568
12:43:47 8 1006 184 0 W 0 96.6 569
12:46:46 7 1006 181 0 S 0 96.6 571
12:49:48 7 1006 182 0 W 0 96.6 570
12:52:46 7 1006 182 0 W 0 96.6 565
12:55:49 7 1006 187 0 W 0 96.6 564
12:58:47 7 1006 186 1 SO 0 96.6 570
13:01:45 7 1006 185 1 S 0 96.6 571
13:04:49 7 1006 185 3 SW 0 96.6 575
13:07:48 7 1006 180 0 SO 0 96.6 577
13:10:50 7 1006 179 0 SO 0 96.6 583
13:13:47 7 1006 183 0 SO 0 96.6 585
13:16:49 7 1006 180 0 SO 0 96.6 585
13:19:46 7 1006 174 0 NO 0 96.6 591
13:22:49 7 1006 161 0 SO 0 96.6 582
13:25:46 7 1006 150 0 0 96.6 579
13:28:48 7 1006 151 0 S 0 96.6 585
13:31:46 7 1006 155 0 O 0 96.6 593
13:34:49 7 1005 157 0 SO 0 96.6 597
13:37:48 7 1006 156 0 SO 0 96.6 600
13:40:50 7 1006 156 0 SO 0 96.6 603
13:43:48 7 1006 155 0 O 0 96.6 608
13:46:46 7 1006 153 0 SO 0 96.6 603
13:49:53 7 1006 152 0 SO 0 96.6 603
13:52:49 7 1006 155 0 SW 0 96.6 617
13:55:47 7 1005 159 0 S 0 96.6 623
13:58:48 7 1006 159 0 SO 0 96.6 631
14:01:48 7 1006 159 2 SO 0 96.6 626
14:04:48 7 1006 158 0 S 0 96.6 623
14:07:46 7 1005 152 0 S 0 96.6 626
14:10:45 7 1005 149 1 S 0 96.6 630
14:13:48 7 1006 148 1 S 0 96.6 635
14:16:46 7 1005 148 3 S 0 96.6 642
14:19:49 7 1006 150 2 SO 0 96.6 642
14:22:48 7 1006 146 0 S 0 96.6 650
14:25:46 7 1005 145 1 S 0 96.6 658
14:28:48 7 1005 144 0 S 0 96.6 667
14:31:46 7 1005 142 2 S 0 96.6 667
14:34:47 7 1005 143 1 SO 0 96.6 667
14:37:45 7 1005 141 0 S 0 96.6 669
14:40:48 7 1005 140 0 SO 0 96.6 669
14:43:47 7 1005 139 1 SO 0 96.6 670
14:46:48 7 1005 138 0 SO 0 96.6 684
14:49:48 7 1004 137 0 SO 0 96.6 693
14:52:49 6 1005 134 0 S 0 96.6 690
14:55:48 6 1004 134 1 SO 0 96.6 685
14:58:47 6 1005 133 1 S 0 96.5 685
15:01:48 6 1005 132 4 SO 0 96.5 690
15:04:46 6 1004 131 0 S 0 96.5 693
15:07:48 6 1005 131 0 SW 0 96.4 692
15:10:49 6 1005 131 1 SO 0 96.2 692
15:13:46 6 1005 131 1 S 0 96.4 695
15:16:47 6 1005 130 4 S 0 96.5 702
15:19:47 6 1005 125 0 W 0 96.6 699
15:22:49 6 1005 118 0 S 0 96.5 690
15:25:47 6 1004 114 0 SO 0 96.4 693
15:28:46 6 1005 110 0 S 0 96.4 700
15:31:47 6 1004 105 0 SW 0 96.1 705
15:34:46 6 1005 103 3 S 0 96.3 706
15:37:47 6 1005 99 1 SO 0 96.2 711
15:40:46 6 1005 93 0 S 0 96.2 715
15:43:46 6 1005 91 1 S 0 96 715
15:46:46 6 1004 91 2 S 0 96.4 709
15:49:47 6 1004 85 3 SO 0 96.2 718
15:52:47 6 1004 79 2 S 0 96.2 720
15:55:46 6 1004 73 0 SO 0 96.4 717
15:58:48 6 1005 64 0 S 0 96.5 712
16:01:46 6 1005 58 0 S 0 96.5 717
16:04:46 6 1005 51 0 S 0 96.5 719
16:07:45 6 1004 44 0 S 0 96.5 728
16:10:49 6 1004 38 0 SO 0 96.5 738
16:13:47 6 1004 32 0 SO 0 96.3 731
16:16:46 6 1003 27 0 S 0 96.2 723
16:19:47 6 1003 20 0 S 0 96.4 714
16:22:47 6 1003 16 0 S 0 96.6 723
16:25:47 6 1003 12 0 S 0 96.6 726
16:28:45 6 1004 9 1 SO 0 96.5 731
16:31:46 6 1004 6 0 S 0 96.5 731
16:34:45 6 1003 4 1 SO 0 96.5 740
16:37:47 6 1004 3 4 S 0 96 740
16:40:46 6 1003 0 0 SO 0 95.6 735
16:43:44 6 1003 0 1 S 0 95 729
16:46:48 6 1003 0 3 SO 0 94.2 732
16:49:45 6 1003 0 2 S 0 94.6 734
16:52:48 6 1003 0 2 SO 0 94.9 737
16:55:47 6 1004 0 0 SO 0 95.2 732
16:58:45 6 1004 0 0 O 0 95.4 735
17:01:46 6 1003 0 0 S 0 95.6 740
17:04:45 6 1003 0 1 S 0 95.6 741
17:07:46 6 1003 0 4 SO 0 95.7 741
17:10:47 6 1003 0 2 SO 0 95.4 743
17:13:45 6 1003 0 3 SO 0 95.1 743
17:16:45 6 1003 0 2 SO 0 95.1 743
17:19:46 6 1003 0 1 O 0 95.3 746
17:22:46 6 1003 0 0 SO 0 95.3 749
17:25:46 6 1003 0 4 SO 0 95.2 745
17:28:46 6 1002 0 0 S 0 95 749
17:31:46 5 1002 0 1 S 0 95.2 752
17:34:48 5 1004 0 0 SO 0 95.3 755
17:37:47 5 1003 0 1 SW 0 95.3 759
17:40:45 5 1002 0 1 SO 0 95.2 756
17:43:49 5 1003 0 0 SO 0 95.2 755
17:46:46 5 1002 0 1 S 0 95.1 756
17:49:47 5 1002 0 3 SO 0 95.2 749
17:52:44 5 1003 0 2 S 0 95.2 751
17:55:48 5 1003 0 3 SO 0 95 749
17:58:47 5 1003 0 1 SO 0 94.9 749
18:01:48 5 1003 0 1 SO 0 94.9 749
18:04:46 5 1002 0 1 S 0 94.9 754
18:07:46 5 1003 0 1 S 0 94.7 723
18:10:46 5 1003 0 0 SO 0 94.4 711
18:13:47 5 1003 0 2 SO 0 94.4 708
18:16:48 5 1003 0 1 S 0 94.7 721
18:19:46 5 1003 0 0 SO 0 94.7 721
18:22:49 5 1002 0 0 SO 0 94.8 727
18:25:48 5 1002 0 0 S 0 95 728
18:28:48 5 1002 0 0 S 0 94.9 727
18:31:45 5 1003 0 0 S 0 94.6 726
18:34:45 5 1002 0 0 S 0 94.5 727
18:37:47 5 1003 0 0 S 0 94.5 726
18:40:45 5 1003 0 0 S 0 94.7 720
18:43:50 5 1002 0 0 S 0 94.9 718
18:46:45 5 1002 0 0 S 0 95 713
18:49:47 5 1002 0 0 S 0 95.1 718
18:52:46 5 1002 0 0 S 0 95.2 721
18:55:47 5 1002 0 0 S 0 95.3 729
18:58:45 5 1003 0 0 S 0 95.4 730
19:01:47 5 1002 0 0 S 0 95.5 741
19:04:45 5 1002 0 0 S 0 95.7 744
19:07:45 5 1002 0 0 S 0 95.7 745
19:10:47 5 1002 0 0 S 0 95.7 739
19:13:46 5 1002 0 1 SO 0 95.7 739
19:16:47 5 1002 0 0 S 0 95.6 741
19:19:47 5 1002 0 1 SO 0 95.3 744
19:22:48 5 1002 0 0 SO 0 95.1 753
19:25:48 5 1002 0 0 SO 0 95.3 746
19:28:50 5 1002 0 0 SO 0 95.1 749
19:31:45 5 1002 0 0 SO 0 95.1 741
19:34:49 5 1002 0 0 SO 0 95.3 753
19:37:44 5 1002 0 0 S 0 95.5 752
19:40:47 5 1002 0 0 SO 0 95.6 754
19:43:45 5 1002 0 0 S 0 95.6 752
19:46:45 5 1002 0 0 S 0 95.5 749
19:49:46 5 1002 0 3 S 0 95.1 750
19:52:47 5 1002 0 0 SO 0 95 755
19:55:48 5 1002 0 2 SO 0 95 755
19:58:44 5 1002 0 0 O 0 95 758
20:01:47 5 1002 0 0 O 0 94.8 762
20:04:47 5 1002 0 0 O 0 95 761
20:07:46 5 1002 0 0 O 0 95.2 756
20:10:47 5 1002 0 0 SO 0 95.3 758
20:13:48 5 1002 0 0 SO 0 95.4 762
20:16:47 5 1002 0 0 SO 0 95.4 759
20:19:48 5 1002 0 0 O 0 95.3 759
20:22:48 5 1001 0 0 SO 0 95.2 764
20:25:46 5 1002 0 0 SO 0 95.2 752
20:28:48 5 1002 0 0 SO 0 95.2 740
20:31:47 5 1002 0 0 SO 0 95.4 746
20:34:46 5 1001 0 0 SO 0 95.5 755
20:37:48 5 1001 0 0 SO 0 95.6 661
20:40:48 5 1002 0 0 SO 0 95.6 659
20:43:47 5 1001 0 0 SO 0 95.7 659
20:46:46 5 1002 0 0 SO 0 95.8 667
20:49:47 5 1002 0 0 SO 0 95.9 664
20:52:51 5 1002 0 0 NW 0 95.9 662
20:55:47 5 1001 0 0 NW 0 95.7 669
20:58:52 5 1002 0 0 NW 0 95.9 668
21:01:47 5 1002 0 0 NW 0 95.9 671
21:04:48 5 1001 0 0 NW 0 95.9 668
21:07:47 5 1001 0 0 NW 0 96 674
21:10:47 5 1001 0 0 NO 0 95.9 664
21:13:47 5 1001 0 0 NO 0 96 671
21:16:48 5 1002 0 0 NO 0 96 659
21:19:48 5 1001 0 0 NO 0 95.9 661
21:22:48 5 1001 0 0 NO 0 95.9 659
21:25:48 5 1002 0 0 NO 0 96.1 656
21:28:48 5 1001 0 0 NO 0 96.2 653
21:31:46 5 1000 0 0 NO 0 96.4 644
21:34:50 5 1001 0 0 NO 0 96.5 639
21:37:48 5 1001 0 0 SO 0 96.6 635
21:40:46 5 1001 0 0 SO 0 96.6 649
21:43:46 5 1001 0 0 SO 0 96.6 661
21:46:45 5 1001 0 0 N 0 96.6 656
21:49:47 5 1000 0 0 SO 0 96.6 655
21:52:48 5 1000 0 0 SO 0 96.6 641
21:55:46 5 1000 0 1 SO 0 96.6 644
21:58:48 5 1000 0 0 SO 0 96.6 653
22:01:48 5 1000 0 0 SO 0 96.6 656
22:04:47 5 1000 0 0 SO 0 96.6 656
22:07:48 5 1000 0 1 S 0 96.6 656
22:10:49 5 1000 0 0 SO 0 96.6 656
22:13:49 5 1000 0 0 SO 0 96.6 653
22:16:45 5 999 0 0 S 0 96.5 648
22:19:47 5 999 0 0 SO 0 96.3 651
22:22:48 5 1000 0 0 SO 0 96.2 662
22:25:47 5 999 0 1 SO 0 96.1 674
22:28:45 5 1000 0 0 S 0 96 676
22:31:47 5 1000 0 1 SO 0 96.1 670
22:34:47 5 999 0 1 SO 0 96.1 664
22:37:48 5 1000 0 0 SO 0 96 661
22:40:49 5 999 0 0 SO 0 95.9 666
22:43:47 5 999 0 0 SO 0 95.9 658
22:46:46 5 999 0 0 SO 0 95.9 659
22:49:45 5 999 0 0 O 0 96 653
22:52:45 5 999 0 0 O 0 95.8 653
22:55:47 5 999 0 1 SO 0 95.7 659
22:58:46 5 999 0 0 SO 0 95.7 669
23:01:46 5 999 0 0 SO 0 95.7 675
23:04:47 5 999 0 2 SO 0 95.8 676
23:07:50 5 1000 0 0 SO 0 95.6 673
23:10:48 5 998 0 0 SO 0 95.5 671
23:13:48 5 999 0 2 SO 0 95.3 674
23:16:47 5 999 0 0 SO 0 95.2 676
23:19:49 5 999 0 0 SO 0 95.2 679
23:22:45 5 999 0 3 S 0 95.1 674
23:25:49 5 1000 0 1 SO 0 94.8 676
23:28:48 5 999 0 2 SO 0 94.8 693
23:31:48 5 999 0 1 SO 0 94.4 702
23:34:45 5 999 0 0 SO 0 94.2 691
23:37:46 5 999 0 0 SO 0 93.9 676
23:40:47 5 998 0 0 SO 0 93.9 673
23:43:46 5 999 0 0 SO 0 94.1 666
23:46:49 5 998 0 0 SO 0 93.6 667
23:49:47 5 999 0 0 SO 0 93.8 662
23:52:48 5 999 0 1 SO 0 94 662
23:55:46 5 998 0 0 SO 0 94 659
23:58:50 5 999 0 0 SO 0 94 662

Letzte Änderung : 04-Jan-2022
Copyright Jens Köhler, Wolfsburg, Obere Dorfstraße 10d